Find Starlink 1230

NORAD ID: 45189 Int'l Des: 2020-012 Owner: SPXS Country: US Constellation: starlink operational
LEOCIRCULAR

リアルタイム位置

3D地球を読み込み中...

Starlink 1230について

説明を読み込み中...

次回通過

Passes for default location (London). Set your location on the main map for personalized predictions.

高度履歴

Loading altitude history...

軌道要素

1 45189U 20012M 26125.29524625 .00064196 00000-0 20247-2 0 9996
2 45189 53.1567 136.5978 0002983 51.8043 308.3227 15.32293414340835
Epoch: May 5, 2026 • Age: 22 hours

現在のステータス

高度 470.8 km
速度 7.63 km/s
衛星直下点 -11.01°S, 174.16°W
打ち上げ日 Feb 17, 2020
運用期間 6.2 years
タイプ internet

技術仕様

分類 Payload
質量 260.00 kg
乾燥質量 248.00 kg
総質量 260.00 kg
長さ 0.20 m
直径 2.80 m
スパン 9.00 m
形状 Box + pan
製造者 SPXS
バスタイプ Starlink
フェーズステータス In Orbit
所有者/国 SPXS/US

Most Searched